AFR23G KLAX-LFPG

Flight info

Callsign AFR23G
Flight time N/A
Altitude 33000
Route OSHNN1 BEALE Q842 WINEN DCT KU60O DCT KU72Q DCT KU12W DCT KP21Y DCT SEGAP/N0487F350 DCT 56N090W 61N080W DCT BEZED DCT AYROU/M084F350 DCT EPMAN DCT 66N050W 65N040W/M084F370 6330N03000W 61N020W DCT GOMUP/N0478F370 DCT GINGA DCT MAKUX DCT SOSIM L15 KEPAD L151 MID/N0499F290 Y803 SFD UM605 BIBAX
Aircraft B77W/H-SDE1E2E3FGHIJ2J3J4J5M1RWXY/LB1D1

Departure

Time N/A
Airport Los Angeles International Airport (KLAX)

Arrival

Time 2026-05-04 03:33
Airport Charles de Gaulle International Airport (LFPG)
Time Latitude Longitude Altitude Speed Heading
2026-05-03 20:15 51.21784 -98.13439 32463 ft 503 kts 34°
2026-05-03 20:15 51.27843 -98.04703 32448 ft 506 kts 34°
2026-05-03 20:16 51.33041 -97.97178 32445 ft 504 kts 34°
2026-05-03 20:16 51.38225 -97.89653 32442 ft 505 kts 34°
2026-05-03 20:17 51.43435 -97.82064 32436 ft 505 kts 34°
2026-05-03 20:17 51.47732 -97.75788 32437 ft 505 kts 34°
2026-05-03 20:18 51.53807 -97.66887 32421 ft 509 kts 34°
2026-05-03 20:18 51.59009 -97.59235 32415 ft 508 kts 34°
2026-05-03 20:19 51.64232 -97.51529 32420 ft 509 kts 34°
2026-05-03 20:19 51.69394 -97.43888 32425 ft 509 kts 34°
2026-05-03 20:20 51.74612 -97.36139 32417 ft 510 kts 34°
2026-05-03 20:20 51.79818 -97.28383 32403 ft 511 kts 35°
2026-05-03 20:21 51.84998 -97.20638 32400 ft 509 kts 35°
2026-05-03 20:21 51.90175 -97.12873 32397 ft 510 kts 35°
2026-05-03 20:22 51.95377 -97.05047 32393 ft 511 kts 36°
2026-05-03 20:22 52.00581 -96.97195 32730 ft 517 kts 36°
2026-05-03 20:22 52.03185 -96.93250 33344 ft 513 kts 36°
2026-05-03 20:23 52.05761 -96.89340 34016 ft 507 kts 36°
2026-05-03 20:23 52.08342 -96.85419 34332 ft 507 kts 36°
2026-05-03 20:23 52.10930 -96.81486 34385 ft 508 kts 36°
2026-05-03 20:24 52.16096 -96.73605 34383 ft 503 kts 36°
2026-05-03 20:24 52.21186 -96.65820 34385 ft 504 kts 36°
2026-05-03 20:25 52.26314 -96.57951 34363 ft 505 kts 36°
2026-05-03 20:25 52.31430 -96.50069 34387 ft 504 kts 36°
2026-05-03 20:26 52.36525 -96.42198 34378 ft 505 kts 36°
2026-05-03 20:26 52.40770 -96.35618 34381 ft 505 kts 36°
2026-05-03 20:27 52.46762 -96.26301 34373 ft 506 kts 37°
2026-05-03 20:27 52.51834 -96.18381 34381 ft 504 kts 37°
2026-05-03 20:28 52.56929 -96.10403 34371 ft 507 kts 37°
2026-05-03 20:28 52.62003 -96.02429 34378 ft 504 kts 37°
2026-05-03 20:29 52.67067 -95.94444 34382 ft 504 kts 37°
2026-05-03 20:29 52.72168 -95.86374 34370 ft 506 kts 37°
2026-05-03 20:30 52.77234 -95.78333 34378 ft 507 kts 37°
2026-05-03 20:30 52.82312 -95.70243 34375 ft 506 kts 37°
2026-05-03 20:31 52.86524 -95.63512 34367 ft 507 kts 37°
2026-05-03 20:31 52.92462 -95.53991 34382 ft 508 kts 38°
2026-05-03 20:32 52.97550 -95.45802 34372 ft 508 kts 38°
2026-05-03 20:32 53.02583 -95.37673 34405 ft 506 kts 38°
2026-05-03 20:33 53.07665 -95.29438 34398 ft 508 kts 39°
2026-05-03 20:33 53.12706 -95.21240 34396 ft 507 kts 39°
2026-05-03 20:34 53.17740 -95.13024 34399 ft 506 kts 39°
2026-05-03 20:34 53.22777 -95.04777 34397 ft 508 kts 39°
2026-05-03 20:35 53.27755 -94.96596 34415 ft 506 kts 39°
2026-05-03 20:35 53.32757 -94.88348 34447 ft 505 kts 39°
2026-05-03 20:36 53.37730 -94.80119 34414 ft 505 kts 39°
2026-05-03 20:36 53.42684 -94.71893 34417 ft 504 kts 39°
2026-05-03 20:37 53.47651 -94.63618 34435 ft 504 kts 40°
2026-05-03 20:37 53.52602 -94.55340 34419 ft 506 kts 40°
2026-05-03 20:38 53.57528 -94.47073 34446 ft 503 kts 40°
2026-05-03 20:38 53.62444 -94.38796 34456 ft 502 kts 40°
2026-05-03 20:39 53.67392 -94.30437 34445 ft 504 kts 41°
2026-05-03 20:39 53.72315 -94.22088 34457 ft 503 kts 41°
2026-05-03 20:40 53.77198 -94.13779 34473 ft 504 kts 41°
2026-05-03 20:40 53.82116 -94.05383 34468 ft 504 kts 41°
2026-05-03 20:41 53.87036 -93.96950 34465 ft 504 kts 41°
2026-05-03 20:41 53.91928 -93.88537 34462 ft 503 kts 41°
2026-05-03 20:42 53.96821 -93.80093 34458 ft 504 kts 41°
2026-05-03 20:42 54.01706 -93.71633 34462 ft 504 kts 41°
2026-05-03 20:43 54.06565 -93.63185 34472 ft 503 kts 42°
2026-05-03 20:43 54.11433 -93.54694 34480 ft 501 kts 42°
2026-05-03 20:44 54.16285 -93.46200 34495 ft 500 kts 42°
2026-05-03 20:44 54.21113 -93.37717 34505 ft 501 kts 42°
2026-05-03 20:45 54.25951 -93.29187 34502 ft 503 kts 43°
2026-05-03 20:45 54.30774 -93.20653 34506 ft 502 kts 43°
2026-05-03 20:46 54.35614 -93.12058 34507 ft 502 kts 43°
2026-05-03 20:46 54.40408 -93.03513 34484 ft 501 kts 43°
2026-05-03 20:47 54.45223 -92.94899 34510 ft 500 kts 43°
2026-05-03 20:47 54.50000 -92.86324 34501 ft 501 kts 43°
2026-05-03 20:48 54.54018 -92.79086 34510 ft 500 kts 43°
2026-05-03 20:48 54.59575 -92.69039 34507 ft 500 kts 43°
2026-05-03 20:49 54.63565 -92.61800 34500 ft 500 kts 43°
2026-05-03 20:49 54.69142 -92.51645 34507 ft 500 kts 43°
2026-05-03 20:50 54.73120 -92.44375 34510 ft 499 kts 43°
2026-05-03 20:50 54.77892 -92.35623 34510 ft 499 kts 43°
2026-05-03 20:51 54.83433 -92.25420 34514 ft 499 kts 44°
2026-05-03 20:51 54.88174 -92.16656 34511 ft 498 kts 44°
2026-05-03 20:52 54.92921 -92.07849 34526 ft 500 kts 44°
2026-05-03 20:52 54.97671 -91.99003 34520 ft 500 kts 44°
2026-05-03 20:53 55.02390 -91.90184 34520 ft 500 kts 44°
2026-05-03 20:53 55.07117 -91.81314 34531 ft 499 kts 44°
2026-05-03 20:54 55.11058 -91.73894 34537 ft 497 kts 44°
2026-05-03 20:54 55.18878 -91.59104 34532 ft 497 kts 45°
2026-05-03 20:55 55.23553 -91.50219 34533 ft 498 kts 45°
2026-05-03 20:55 55.28231 -91.41293 34532 ft 497 kts 45°
2026-05-03 20:56 55.32912 -91.32329 34527 ft 497 kts 46°
2026-05-03 20:56 55.37566 -91.23381 34534 ft 497 kts 45°
2026-05-03 20:57 55.41428 -91.15932 34534 ft 497 kts 46°
2026-05-03 20:57 55.46833 -91.05467 34542 ft 497 kts 46°
2026-05-03 20:58 55.51479 -90.96435 34543 ft 497 kts 46°
2026-05-03 20:58 55.56075 -90.87465 34544 ft 496 kts 46°
2026-05-03 20:59 55.60688 -90.78429 34540 ft 496 kts 46°
2026-05-03 20:59 55.65279 -90.69401 34545 ft 496 kts 46°
2026-05-03 21:00 55.68319 -90.63406 34538 ft 495 kts 46°
2026-05-03 21:00 55.74441 -90.51284 34537 ft 497 kts 46°
2026-05-03 21:01 55.79023 -90.42172 34539 ft 498 kts 46°
2026-05-03 21:01 55.83591 -90.33051 34544 ft 498 kts 47°
2026-05-03 21:02 55.88170 -90.23874 34547 ft 498 kts 47°
2026-05-03 21:02 55.92768 -90.14624 34550 ft 498 kts 47°
2026-05-03 21:03 55.97335 -90.05399 34552 ft 498 kts 47°
2026-05-03 21:03 56.01944 -89.96310 34552 ft 497 kts 42°
2026-05-03 21:04 56.07109 -89.88107 34562 ft 497 kts 40°
2026-05-03 21:04 56.12257 -89.79913 34568 ft 497 kts 41°
2026-05-03 21:05 56.17349 -89.71699 34574 ft 496 kts 41°
2026-05-03 21:05 56.22459 -89.63382 34578 ft 496 kts 41°
2026-05-03 21:06 56.26680 -89.56469 34580 ft 496 kts 41°
2026-05-03 21:06 56.32579 -89.46757 34578 ft 494 kts 41°
2026-05-03 21:07 56.37635 -89.38390 34575 ft 493 kts 41°
2026-05-03 21:07 56.42635 -89.30080 34575 ft 493 kts 42°
2026-05-03 21:08 56.47667 -89.21684 34577 ft 493 kts 43°
2026-05-03 21:08 56.52683 -89.13283 34584 ft 494 kts 43°
2026-05-03 21:09 56.56868 -89.06248 34591 ft 494 kts 43°
2026-05-03 21:09 56.62698 -88.96409 34595 ft 494 kts 43°
2026-05-03 21:10 56.66882 -88.89321 34598 ft 494 kts 43°
2026-05-03 21:10 56.72690 -88.79444 34604 ft 493 kts 43°
2026-05-03 21:11 56.77669 -88.70943 34607 ft 492 kts 43°
2026-05-03 21:11 56.82638 -88.62426 34608 ft 493 kts 43°
2026-05-03 21:12 56.87601 -88.53887 34600 ft 494 kts 43°
2026-05-03 21:12 56.91768 -88.46692 34597 ft 494 kts 43°
2026-05-03 21:13 56.96725 -88.38103 34594 ft 494 kts 43°
2026-05-03 21:13 57.02512 -88.28033 34593 ft 493 kts 44°
2026-05-03 21:14 57.07456 -88.19395 34592 ft 492 kts 44°
2026-05-03 21:14 57.12378 -88.10761 34593 ft 493 kts 44°
2026-05-03 21:15 57.16497 -88.03509 34594 ft 493 kts 44°
2026-05-03 21:15 57.22252 -87.93340 34591 ft 492 kts 44°
2026-05-03 21:16 57.26319 -87.86125 34591 ft 492 kts 44°
2026-05-03 21:16 57.32064 -87.75893 34592 ft 492 kts 44°
2026-05-03 21:17 57.36131 -87.68623 34592 ft 492 kts 44°
2026-05-03 21:17 57.41856 -87.58346 34595 ft 491 kts 44°
2026-05-03 21:18 57.46717 -87.49582 34597 ft 491 kts 44°
2026-05-03 21:18 57.51604 -87.40739 34592 ft 492 kts 44°
2026-05-03 21:19 57.55648 -87.33394 34587 ft 492 kts 45°
2026-05-03 21:19 57.60528 -87.24499 34583 ft 491 kts 45°
2026-05-03 21:20 57.65389 -87.15603 34582 ft 491 kts 45°
2026-05-03 21:20 57.71033 -87.05230 34580 ft 490 kts 45°
2026-05-03 21:21 57.75852 -86.96334 34577 ft 490 kts 45°
2026-05-03 21:21 57.80702 -86.87346 34577 ft 491 kts 45°
2026-05-03 21:22 57.85529 -86.78364 34573 ft 492 kts 45°
2026-05-03 21:22 57.89552 -86.70853 34572 ft 491 kts 45°
2026-05-03 21:23 57.94367 -86.61829 34578 ft 491 kts 45°
2026-05-03 21:23 57.99958 -86.51303 34571 ft 490 kts 45°
2026-05-03 21:24 58.03941 -86.43775 34568 ft 489 kts 45°
2026-05-03 21:24 58.08728 -86.34694 34574 ft 489 kts 46°
2026-05-03 21:25 58.13517 -86.25573 34572 ft 490 kts 46°
2026-05-03 21:25 58.19068 -86.14952 34564 ft 490 kts 46°
2026-05-03 21:26 58.23036 -86.07331 34555 ft 490 kts 46°
2026-05-03 21:26 58.28567 -85.96664 34551 ft 488 kts 46°
2026-05-03 21:27 58.32525 -85.88999 34551 ft 488 kts 46°
2026-05-03 21:27 58.38038 -85.78279 34556 ft 488 kts 46°
2026-05-03 21:28 58.41986 -85.70572 34561 ft 489 kts 46°
2026-05-03 21:28 58.46699 -85.61337 34559 ft 488 kts 46°
2026-05-03 21:29 58.52186 -85.50536 34558 ft 488 kts 46°
2026-05-03 21:29 58.56896 -85.41225 34557 ft 488 kts 46°
2026-05-03 21:30 58.60818 -85.33440 34558 ft 488 kts 47°
2026-05-03 21:30 58.65500 -85.24113 34555 ft 487 kts 47°
2026-05-03 21:31 58.70166 -85.14780 34557 ft 487 kts 47°
2026-05-03 21:31 58.75583 -85.03896 34556 ft 487 kts 47°
2026-05-03 21:32 58.79462 -84.96070 34542 ft 486 kts 47°
2026-05-03 21:32 58.84898 -84.85055 34537 ft 487 kts 47°
2026-05-03 21:33 58.88752 -84.77215 34536 ft 488 kts 47°
2026-05-03 21:33 58.93406 -84.67709 34534 ft 487 kts 47°
2026-05-03 21:34 58.98022 -84.58244 34533 ft 486 kts 47°
2026-05-03 21:34 59.02632 -84.48749 34533 ft 486 kts 47°
2026-05-03 21:35 59.07246 -84.39208 34537 ft 485 kts 47°
2026-05-03 21:35 59.11849 -84.29648 34545 ft 486 kts 49°
2026-05-03 21:36 59.16429 -84.20095 34552 ft 486 kts 49°
2026-05-03 21:36 59.21009 -84.10503 34553 ft 486 kts 49°
2026-05-03 21:37 59.25576 -84.00899 34552 ft 486 kts 49°
2026-05-03 21:37 59.30175 -83.91184 34549 ft 486 kts 49°
2026-05-03 21:38 59.34716 -83.81551 34552 ft 486 kts 49°
2026-05-03 21:38 59.39290 -83.71809 34555 ft 486 kts 49°
2026-05-03 21:39 59.43829 -83.62097 34556 ft 486 kts 49°
2026-05-03 21:39 59.48368 -83.52345 34554 ft 486 kts 49°
2026-05-03 21:40 59.52903 -83.42560 34552 ft 487 kts 49°
2026-05-03 21:40 59.57418 -83.32774 34556 ft 486 kts 50°
2026-05-03 21:41 59.61942 -83.22927 34563 ft 486 kts 50°
2026-05-03 21:41 59.67207 -83.11417 34582 ft 486 kts 50°
2026-05-03 21:42 59.70956 -83.03182 34578 ft 486 kts 50°
2026-05-03 21:42 59.75466 -82.93237 34577 ft 486 kts 50°
2026-05-03 21:43 59.79962 -82.83280 34581 ft 486 kts 50°
2026-05-03 21:43 59.85172 -82.71687 34577 ft 486 kts 50°
2026-05-03 21:44 59.88914 -82.63324 34582 ft 486 kts 50°
2026-05-03 21:44 59.93359 -82.53352 34576 ft 485 kts 50°
2026-05-03 21:45 59.97834 -82.43265 34582 ft 486 kts 50°
2026-05-03 21:45 60.02262 -82.33241 34593 ft 485 kts 51°
2026-05-03 21:46 60.06720 -82.23105 34586 ft 485 kts 51°
2026-05-03 21:46 60.11130 -82.13033 34595 ft 485 kts 51°
2026-05-03 21:47 60.15562 -82.02868 34610 ft 484 kts 51°
2026-05-03 21:47 60.19956 -81.92743 34601 ft 484 kts 51°
2026-05-03 21:48 60.24344 -81.82587 34606 ft 484 kts 51°
2026-05-03 21:48 60.28724 -81.72405 34623 ft 484 kts 51°
2026-05-03 21:49 60.33100 -81.62185 34626 ft 484 kts 51°
2026-05-03 21:49 60.37488 -81.51894 34625 ft 483 kts 51°
2026-05-03 21:50 60.41831 -81.41661 34630 ft 482 kts 51°
2026-05-03 21:50 60.46180 -81.31368 34644 ft 482 kts 52°
2026-05-03 21:51 60.50522 -81.21046 34645 ft 481 kts 52°
2026-05-03 21:51 60.54832 -81.10750 34646 ft 482 kts 52°
2026-05-03 21:52 60.59160 -81.00368 34648 ft 482 kts 52°
2026-05-03 21:52 60.63459 -80.90009 34639 ft 481 kts 52°
2026-05-03 21:53 60.67749 -80.79622 34654 ft 482 kts 52°
2026-05-03 21:53 60.72024 -80.69224 34669 ft 481 kts 52°
2026-05-03 21:54 60.76299 -80.58782 34651 ft 481 kts 52°
2026-05-03 21:54 60.80561 -80.48321 34656 ft 482 kts 52°
2026-05-03 21:55 60.84819 -80.37825 34665 ft 481 kts 52°
2026-05-03 21:55 60.89081 -80.27269 34672 ft 481 kts 53°
2026-05-03 21:56 60.93326 -80.16705 34673 ft 481 kts 53°
2026-05-03 21:56 60.97573 -80.06089 34677 ft 480 kts 54°
2026-05-03 21:57 61.01763 -79.95457 34674 ft 480 kts 54°
2026-05-03 21:57 61.05937 -79.84734 34687 ft 480 kts 54°
2026-05-03 21:58 61.10106 -79.73965 34711 ft 480 kts 54°
2026-05-03 21:58 61.14271 -79.63158 34707 ft 480 kts 54°
2026-05-03 21:59 61.18404 -79.52377 34699 ft 479 kts 54°
2026-05-03 21:59 61.22528 -79.41570 34701 ft 479 kts 54°
2026-05-03 22:00 61.26631 -79.30768 34709 ft 477 kts 56°
2026-05-03 22:00 61.30723 -79.19943 34720 ft 478 kts 56°
2026-05-03 22:01 61.34833 -79.09019 34704 ft 477 kts 56°
2026-05-03 22:01 61.39571 -78.96362 34704 ft 477 kts 56°
2026-05-03 22:02 61.42988 -78.87187 34715 ft 478 kts 56°
2026-05-03 22:02 61.47030 -78.76292 34708 ft 476 kts 56°
2026-05-03 22:03 61.51085 -78.65305 34730 ft 476 kts 56°
2026-05-03 22:03 61.55110 -78.54347 34707 ft 476 kts 56°
2026-05-03 22:04 61.59145 -78.43312 34709 ft 477 kts 56°
2026-05-03 22:04 61.63170 -78.32252 34707 ft 475 kts 57°
2026-05-03 22:05 61.67171 -78.21204 34722 ft 473 kts 57°
2026-05-03 22:05 61.71153 -78.10152 34735 ft 475 kts 57°
2026-05-03 22:06 61.75111 -77.99118 34749 ft 474 kts 57°
2026-05-03 22:06 61.79072 -77.88018 34735 ft 473 kts 57°
2026-05-03 22:07 61.83015 -77.76917 34739 ft 472 kts 57°
2026-05-03 22:07 61.86948 -77.65790 34760 ft 472 kts 57°
2026-05-03 22:08 61.90864 -77.54659 34734 ft 471 kts 57°
2026-05-03 22:08 61.94788 -77.43449 34730 ft 472 kts 57°
2026-05-03 22:09 61.98704 -77.32207 34749 ft 471 kts 58°
2026-05-03 22:10 62.04489 -77.15499 34749 ft 468 kts 58°
2026-05-03 22:10 62.08335 -77.04322 34739 ft 469 kts 59°
2026-05-03 22:11 62.12200 -76.93037 34735 ft 468 kts 58°
2026-05-03 22:11 62.16025 -76.81811 34741 ft 469 kts 59°
2026-05-03 22:12 62.19836 -76.70576 34727 ft 467 kts 59°
2026-05-03 22:12 62.23648 -76.59280 34728 ft 466 kts 59°
2026-05-03 22:13 62.27425 -76.48028 34733 ft 468 kts 59°
2026-05-03 22:13 62.31227 -76.36648 34764 ft 467 kts 59°
2026-05-03 22:14 62.34969 -76.25396 34759 ft 465 kts 60°
2026-05-03 22:14 62.38025 -76.16161 34775 ft 466 kts 60°
2026-05-03 22:15 62.42471 -76.02663 34777 ft 465 kts 60°
2026-05-03 22:15 62.46222 -75.91209 34824 ft 466 kts 60°
2026-05-03 22:16 62.49927 -75.79842 34797 ft 465 kts 60°
2026-05-03 22:16 62.53623 -75.68446 34850 ft 463 kts 60°
2026-05-03 22:17 62.57332 -75.56952 34830 ft 463 kts 60°
2026-05-03 22:17 62.61018 -75.45470 34814 ft 462 kts 60°
2026-05-03 22:18 62.64674 -75.34025 34818 ft 464 kts 61°
2026-05-03 22:18 62.68325 -75.22543 34831 ft 459 kts 61°
2026-05-03 22:19 62.71964 -75.11034 34833 ft 459 kts 61°
2026-05-03 22:19 62.75568 -74.99578 34863 ft 460 kts 61°
2026-05-03 22:20 62.79187 -74.88019 34871 ft 460 kts 61°
2026-05-03 22:20 62.82755 -74.76565 34845 ft 458 kts 61°
2026-05-03 22:21 62.86345 -74.64981 34847 ft 458 kts 61°
2026-05-03 22:21 62.89916 -74.53398 34858 ft 458 kts 61°
2026-05-03 22:22 62.93450 -74.41879 34848 ft 459 kts 61°
2026-05-03 22:22 62.97022 -74.30177 34883 ft 458 kts 62°
2026-05-03 22:23 63.00545 -74.18577 34889 ft 456 kts 62°
2026-05-03 22:23 63.04064 -74.06928 34887 ft 456 kts 62°
2026-05-03 22:24 63.07555 -73.95312 34892 ft 457 kts 62°
2026-05-03 22:24 63.11064 -73.83576 34882 ft 458 kts 62°
2026-05-03 22:25 63.14556 -73.71835 34883 ft 460 kts 62°
2026-05-03 22:25 63.18070 -73.59961 34887 ft 460 kts 62°
2026-05-03 22:26 63.21568 -73.48080 34889 ft 459 kts 61°
2026-05-03 22:26 63.25037 -73.36234 34894 ft 460 kts 61°
2026-05-03 22:27 63.28534 -73.24229 34900 ft 461 kts 62°
2026-05-03 22:27 63.31992 -73.12295 34901 ft 462 kts 62°
2026-05-03 22:28 63.35463 -73.00251 34910 ft 461 kts 62°
2026-05-03 22:28 63.38948 -72.88094 34909 ft 462 kts 62°
2026-05-03 22:29 63.42402 -72.75982 34907 ft 463 kts 62°
2026-05-03 22:29 63.45841 -72.63854 34918 ft 464 kts 62°
2026-05-03 22:30 63.49286 -72.51643 34919 ft 464 kts 62°
2026-05-03 22:30 63.52730 -72.39368 34918 ft 464 kts 62°
2026-05-03 22:31 63.56151 -72.27106 34926 ft 464 kts 62°
2026-05-03 22:31 63.59566 -72.14798 34933 ft 465 kts 62°
2026-05-03 22:32 63.62971 -72.02460 34932 ft 466 kts 62°
2026-05-03 22:32 63.66369 -71.90079 34929 ft 467 kts 62°
2026-05-03 22:33 63.69768 -71.77626 34938 ft 467 kts 62°
2026-05-03 22:33 63.73172 -71.65087 34947 ft 467 kts 62°
2026-05-03 22:34 63.76564 -71.52519 34948 ft 468 kts 62°
2026-05-03 22:34 63.79924 -71.39999 34929 ft 467 kts 62°
2026-05-03 22:35 63.83285 -71.27406 34919 ft 467 kts 63°
2026-05-03 22:35 63.86624 -71.14825 34893 ft 467 kts 62°
2026-05-03 22:36 63.89987 -71.02080 34893 ft 468 kts 62°
2026-05-03 22:36 63.93308 -70.89422 34895 ft 468 kts 62°
2026-05-03 22:37 63.96647 -70.76623 34885 ft 469 kts 62°
2026-05-03 22:37 63.99956 -70.63865 34891 ft 471 kts 62°
2026-05-03 22:38 64.03269 -70.51019 34903 ft 470 kts 62°
2026-05-03 22:38 64.06579 -70.38111 34920 ft 470 kts 62°
2026-05-03 22:39 64.09889 -70.25123 34931 ft 470 kts 63°
2026-05-03 22:39 64.13154 -70.12238 34943 ft 472 kts 63°
2026-05-03 22:40 64.16444 -69.99181 34949 ft 473 kts 63°
2026-05-03 22:40 64.19724 -69.86083 34960 ft 472 kts 63°
2026-05-03 22:41 64.22977 -69.73017 34972 ft 474 kts 63°
2026-05-03 22:41 64.26243 -69.59818 34987 ft 474 kts 63°
2026-05-03 22:42 64.29495 -69.46596 34990 ft 475 kts 63°
2026-05-03 22:42 64.32737 -69.33339 34976 ft 474 kts 63°
2026-05-03 22:43 64.35974 -69.20016 34969 ft 475 kts 63°
2026-05-03 22:43 64.39172 -69.06776 34962 ft 476 kts 63°
2026-05-03 22:44 64.42389 -68.93379 34961 ft 477 kts 63°
2026-05-03 22:44 64.45616 -68.79854 34947 ft 476 kts 63°
2026-05-03 22:45 64.48800 -68.66427 34940 ft 477 kts 63°
2026-05-03 22:45 64.51976 -68.52951 34934 ft 477 kts 63°
2026-05-03 22:46 64.55167 -68.39325 34950 ft 478 kts 63°
2026-05-03 22:46 64.58318 -68.25787 34965 ft 479 kts 64°
2026-05-03 22:47 64.61497 -68.12042 34958 ft 480 kts 64°
2026-05-03 22:47 64.64635 -67.98387 34958 ft 480 kts 64°
2026-05-03 22:48 64.67772 -67.84650 34956 ft 479 kts 64°
2026-05-03 22:48 64.70896 -67.70882 34969 ft 480 kts 64°
2026-05-03 22:49 64.74017 -67.57037 34982 ft 482 kts 64°
2026-05-03 22:49 64.77116 -67.43202 34991 ft 482 kts 64°
2026-05-03 22:50 64.80243 -67.29156 35003 ft 483 kts 65°
2026-05-03 22:50 64.83321 -67.15231 35044 ft 484 kts 64°
2026-05-03 22:51 64.86295 -67.01042 35048 ft 481 kts 69°
2026-05-03 22:51 64.88750 -66.86463 35079 ft 481 kts 70°
2026-05-03 22:52 64.91145 -66.71821 35127 ft 483 kts 70°
2026-05-03 22:52 64.93538 -66.56943 35174 ft 484 kts 70°
2026-05-03 22:53 64.95894 -66.42099 35212 ft 485 kts 70°
2026-05-03 22:53 64.98246 -66.27114 35233 ft 485 kts 71°
2026-05-03 22:54 65.00569 -66.12174 35247 ft 484 kts 71°
2026-05-03 22:54 65.02877 -65.97197 35244 ft 485 kts 71°
2026-05-03 22:55 65.05187 -65.82079 35242 ft 487 kts 71°
2026-05-03 22:55 65.07464 -65.67042 35251 ft 488 kts 71°
2026-05-03 22:56 65.09743 -65.51866 35246 ft 488 kts 71°
2026-05-03 22:56 65.12012 -65.36629 35248 ft 489 kts 71°
2026-05-03 22:57 65.14263 -65.21377 35248 ft 489 kts 72°
2026-05-03 22:57 65.16501 -65.06090 35255 ft 490 kts 72°
2026-05-03 22:58 65.18718 -64.90808 35260 ft 489 kts 72°
2026-05-03 22:58 65.20911 -64.75558 35255 ft 489 kts 72°
2026-05-03 22:59 65.23108 -64.60155 35227 ft 491 kts 72°
2026-05-03 22:59 65.25287 -64.44738 35191 ft 492 kts 72°
2026-05-03 23:00 65.27461 -64.29210 35167 ft 491 kts 73°
2026-05-03 23:00 65.29610 -64.13731 35171 ft 492 kts 73°
2026-05-03 23:01 65.31755 -63.98146 35180 ft 492 kts 72°
2026-05-03 23:01 65.34497 -63.83110 35218 ft 494 kts 66°
2026-05-03 23:02 65.37380 -63.68157 35244 ft 494 kts 66°
2026-05-03 23:02 65.40195 -63.53235 35278 ft 495 kts 66°
2026-05-03 23:03 65.43003 -63.38122 35315 ft 496 kts 66°
2026-05-03 23:03 65.45801 -63.22890 35332 ft 496 kts 68°
2026-05-03 23:04 65.48564 -63.07694 35348 ft 498 kts 68°
2026-05-03 23:04 65.51344 -62.92276 35411 ft 503 kts 68°
2026-05-03 23:04 65.52717 -62.84606 35672 ft 502 kts 68°
2026-05-03 23:05 65.54062 -62.77071 35991 ft 499 kts 68°
2026-05-03 23:05 65.55428 -62.69378 36335 ft 498 kts 67°
2026-05-03 23:05 65.56782 -62.61725 36641 ft 499 kts 67°
2026-05-03 23:05 65.58144 -62.54006 36931 ft 501 kts 67°
2026-05-03 23:06 65.59512 -62.46207 37241 ft 501 kts 67°
2026-05-03 23:06 65.60861 -62.38494 37351 ft 504 kts 67°
2026-05-03 23:06 65.62213 -62.30730 37372 ft 502 kts 68°
2026-05-03 23:07 65.64925 -62.15068 37371 ft 502 kts 68°
2026-05-03 23:07 65.67606 -61.99459 37375 ft 503 kts 68°
2026-05-03 23:08 65.70263 -61.83857 37374 ft 503 kts 68°
2026-05-03 23:08 65.72913 -61.68178 37371 ft 503 kts 68°
2026-05-03 23:09 65.75568 -61.52334 37375 ft 504 kts 68°
2026-05-03 23:09 65.78198 -61.36513 37383 ft 505 kts 68°
2026-05-03 23:10 65.80800 -61.20732 37383 ft 504 kts 69°
2026-05-03 23:10 65.83405 -61.04797 37384 ft 506 kts 69°
2026-05-03 23:11 65.85986 -60.88881 37383 ft 506 kts 69°
2026-05-03 23:11 65.88547 -60.72948 37392 ft 506 kts 69°
2026-05-03 23:12 65.91106 -60.56889 37388 ft 506 kts 69°
2026-05-03 23:12 65.93643 -60.40838 37392 ft 507 kts 68°
2026-05-03 23:13 65.96181 -60.24640 37395 ft 508 kts 69°
2026-05-03 23:13 65.98682 -60.08495 37388 ft 509 kts 71°
2026-05-03 23:14 66.00090 -59.91497 37395 ft 509 kts 85°
2026-05-03 23:14 66.00723 -59.74190 37393 ft 508 kts 85°
2026-05-03 23:15 66.01286 -59.56962 37389 ft 509 kts 86°
2026-05-03 23:15 66.01817 -59.39549 37379 ft 509 kts 86°
2026-05-03 23:16 66.02315 -59.22195 37374 ft 510 kts 87°
2026-05-03 23:16 66.02789 -59.04777 37366 ft 511 kts 87°
2026-05-03 23:17 66.03241 -58.87353 37362 ft 511 kts 87°
2026-05-03 23:17 66.03671 -58.69929 37363 ft 510 kts 86°
2026-05-03 23:18 66.04079 -58.52542 37358 ft 510 kts 87°
2026-05-03 23:18 66.04467 -58.35208 37349 ft 511 kts 86°
2026-05-03 23:19 66.04835 -58.17851 37356 ft 512 kts 88°
2026-05-03 23:19 66.05186 -58.00313 37347 ft 513 kts 88°
2026-05-03 23:20 66.05517 -57.82791 37347 ft 514 kts 88°
2026-05-03 23:20 66.05829 -57.65255 37331 ft 513 kts 88°
2026-05-03 23:21 66.06119 -57.47722 37320 ft 513 kts 88°
2026-05-03 23:21 66.06389 -57.30322 37312 ft 513 kts 88°
2026-05-03 23:22 66.06760 -57.03931 37296 ft 513 kts 88°
2026-05-03 23:22 66.06982 -56.86339 37304 ft 514 kts 88°
2026-05-03 23:23 66.07185 -56.68701 37297 ft 515 kts 88°
2026-05-03 23:23 66.07368 -56.51012 37297 ft 516 kts 88°
2026-05-03 23:24 66.07531 -56.33331 37285 ft 517 kts 89°
2026-05-03 23:24 66.07674 -56.15634 37296 ft 516 kts 89°
2026-05-03 23:25 66.07796 -55.97920 37289 ft 516 kts 89°
2026-05-03 23:25 66.07897 -55.80357 37266 ft 516 kts 89°
2026-05-03 23:26 66.07980 -55.62589 37265 ft 516 kts 89°
2026-05-03 23:26 66.08041 -55.44961 37245 ft 517 kts 89°
2026-05-03 23:27 66.08082 -55.27183 37228 ft 517 kts 90°
2026-05-03 23:27 66.08103 -55.09438 37227 ft 518 kts 90°
2026-05-03 23:28 66.08104 -54.91641 37210 ft 518 kts 90°
2026-05-03 23:28 66.08084 -54.73936 37215 ft 519 kts 90°
2026-05-03 23:29 66.08044 -54.56172 37213 ft 518 kts 90°
2026-05-03 23:29 66.07983 -54.38397 37198 ft 519 kts 90°
2026-05-03 23:30 66.07902 -54.20505 37207 ft 520 kts 91°
2026-05-03 23:30 66.07800 -54.02629 37217 ft 522 kts 91°
2026-05-03 23:31 66.07677 -53.84877 37199 ft 521 kts 91°
2026-05-03 23:31 66.07534 -53.67083 37191 ft 522 kts 91°
2026-05-03 23:32 66.07370 -53.49146 37208 ft 521 kts 91°
2026-05-03 23:32 66.07186 -53.31395 37145 ft 521 kts 92°
2026-05-03 23:33 66.06981 -53.13558 37134 ft 521 kts 92°
2026-05-03 23:33 66.06755 -52.95678 37121 ft 521 kts 92°
2026-05-03 23:34 66.06509 -52.77884 37093 ft 521 kts 92°
2026-05-03 23:34 66.06242 -52.60016 37074 ft 522 kts 92°
2026-05-03 23:35 66.05954 -52.42130 37077 ft 524 kts 92°
2026-05-03 23:35 66.05643 -52.24196 36997 ft 523 kts 93°
2026-05-03 23:36 66.05314 -52.06304 37040 ft 524 kts 92°
2026-05-03 23:36 66.04963 -51.88434 37083 ft 524 kts 92°
2026-05-03 23:37 66.04591 -51.70528 37013 ft 525 kts 92°
2026-05-03 23:37 66.04199 -51.52662 37007 ft 524 kts 92°
2026-05-03 23:38 66.03783 -51.34685 36996 ft 524 kts 94°
2026-05-03 23:38 66.03348 -51.16735 36989 ft 525 kts 94°
2026-05-03 23:39 66.02895 -50.98926 36996 ft 526 kts 94°
2026-05-03 23:39 66.02413 -50.80853 37011 ft 527 kts 94°
2026-05-03 23:40 66.01918 -50.63034 37011 ft 527 kts 94°
2026-05-03 23:40 66.01395 -50.44965 37036 ft 526 kts 94°
2026-05-03 23:41 66.00857 -50.27150 37046 ft 525 kts 95°
2026-05-03 23:41 66.00295 -50.09187 37064 ft 526 kts 95°
2026-05-03 23:42 65.99368 -49.91465 37061 ft 526 kts 99°
2026-05-03 23:42 65.98244 -49.73699 37064 ft 526 kts 99°
2026-05-03 23:43 65.97083 -49.55996 37045 ft 526 kts 99°
2026-05-03 23:43 65.95894 -49.38307 37020 ft 527 kts 99°
2026-05-03 23:44 65.94676 -49.20579 37023 ft 527 kts 100°
2026-05-03 23:44 65.93441 -49.02947 37026 ft 528 kts 100°
2026-05-03 23:45 65.92177 -48.85234 37001 ft 528 kts 100°
2026-05-03 23:45 65.90887 -48.67476 37006 ft 528 kts 100°
2026-05-03 23:46 65.89593 -48.49976 36990 ft 527 kts 100°
2026-05-03 23:46 65.88266 -48.32305 36985 ft 527 kts 101°
2026-05-03 23:47 65.86929 -48.14798 36966 ft 527 kts 101°
2026-05-03 23:47 65.85564 -47.97210 36948 ft 526 kts 101°
2026-05-03 23:48 65.84187 -47.79726 36932 ft 527 kts 101°
2026-05-03 23:48 65.82777 -47.62123 36929 ft 527 kts 101°
2026-05-03 23:49 65.81360 -47.44682 36934 ft 527 kts 101°
2026-05-03 23:49 65.79913 -47.27142 36910 ft 527 kts 102°
2026-05-03 23:50 65.78457 -47.09755 36934 ft 527 kts 102°
2026-05-03 23:50 65.76969 -46.92248 36950 ft 528 kts 102°
2026-05-03 23:51 65.75462 -46.74762 36934 ft 528 kts 102°
2026-05-03 23:51 65.73944 -46.57413 36919 ft 527 kts 102°
2026-05-03 23:52 65.72398 -46.39986 36921 ft 527 kts 102°
2026-05-03 23:52 65.70831 -46.22567 36927 ft 527 kts 103°
2026-05-03 23:53 65.69252 -46.05247 36947 ft 526 kts 103°
2026-05-03 23:53 65.67653 -45.87947 36923 ft 527 kts 103°
2026-05-03 23:54 65.66038 -45.70712 36925 ft 527 kts 103°
2026-05-03 23:54 65.64392 -45.53377 36939 ft 528 kts 103°
2026-05-03 23:55 65.62734 -45.36134 36947 ft 527 kts 103°
2026-05-03 23:55 65.61059 -45.18948 36925 ft 526 kts 104°
2026-05-03 23:56 65.59364 -45.01781 36943 ft 525 kts 104°
2026-05-03 23:56 65.57653 -44.84656 36948 ft 526 kts 104°
2026-05-03 23:57 65.55920 -44.67542 36934 ft 527 kts 104°
2026-05-03 23:57 65.54157 -44.50330 36919 ft 527 kts 104°
2026-05-03 23:58 65.52389 -44.33296 36930 ft 526 kts 105°
2026-05-03 23:58 65.50593 -44.16189 36933 ft 526 kts 105°
2026-05-03 23:59 65.48785 -43.99178 36917 ft 525 kts 105°
2026-05-03 23:59 65.46956 -43.82174 36930 ft 527 kts 105°
2026-05-04 00:00 65.45104 -43.65151 36938 ft 526 kts 105°
2026-05-04 00:00 65.43236 -43.48189 36923 ft 529 kts 105°
2026-05-04 00:01 65.41338 -43.31146 36926 ft 532 kts 106°
2026-05-04 00:01 65.39412 -43.14058 36920 ft 533 kts 106°
2026-05-04 00:02 65.37460 -42.96933 36920 ft 532 kts 106°
2026-05-04 00:02 65.35492 -42.79857 36902 ft 534 kts 106°
2026-05-04 00:03 65.33489 -42.62680 36914 ft 535 kts 106°
2026-05-04 00:03 65.31473 -42.45582 36932 ft 536 kts 106°
2026-05-04 00:04 65.29434 -42.28478 36951 ft 540 kts 107°
2026-05-04 00:04 65.27354 -42.11222 36990 ft 541 kts 107°
2026-05-04 00:05 65.25266 -41.94090 37022 ft 542 kts 107°
2026-05-04 00:05 65.23154 -41.76946 37039 ft 542 kts 107°
2026-05-04 00:06 65.21009 -41.59718 37059 ft 541 kts 106°
2026-05-04 00:06 65.18855 -41.42612 37070 ft 542 kts 106°
2026-05-04 00:07 65.16688 -41.25572 37078 ft 541 kts 107°
2026-05-04 00:07 65.14494 -41.08518 37077 ft 540 kts 107°
2026-05-04 00:08 65.12289 -40.91536 37100 ft 539 kts 107°
2026-05-04 00:08 65.10052 -40.74497 37107 ft 540 kts 107°
2026-05-04 00:09 65.07812 -40.57613 37102 ft 537 kts 107°
2026-05-04 00:09 65.05548 -40.40712 37105 ft 538 kts 107°
2026-05-04 00:10 65.03273 -40.23897 37116 ft 537 kts 108°
2026-05-04 00:10 65.00978 -40.07106 37126 ft 536 kts 108°
2026-05-04 00:11 64.98923 -39.90231 37139 ft 535 kts 104°
2026-05-04 00:11 64.97035 -39.73159 37133 ft 534 kts 104°
2026-05-04 00:12 64.95143 -39.56243 37143 ft 534 kts 104°
2026-05-04 00:12 64.93243 -39.39455 37127 ft 534 kts 104°
2026-05-04 00:13 64.91305 -39.22522 37129 ft 531 kts 105°
2026-05-04 00:13 64.89362 -39.05753 37141 ft 531 kts 105°
2026-05-04 00:14 64.87401 -38.89002 37145 ft 532 kts 105°
2026-05-04 00:14 64.85425 -38.72319 37140 ft 533 kts 105°
2026-05-04 00:15 64.83420 -38.55568 37141 ft 532 kts 105°
2026-05-04 00:15 64.81404 -38.38911 37130 ft 531 kts 105°
2026-05-04 00:16 64.79369 -38.22269 37142 ft 531 kts 107°
2026-05-04 00:16 64.77313 -38.05644 37150 ft 532 kts 106°
2026-05-04 00:17 64.75236 -37.89027 37120 ft 532 kts 106°
2026-05-04 00:17 64.73148 -37.72485 37149 ft 533 kts 106°
2026-05-04 00:18 64.71037 -37.55936 37140 ft 534 kts 107°
2026-05-04 00:18 64.68895 -37.39312 37118 ft 533 kts 106°
2026-05-04 00:19 64.66741 -37.22772 37118 ft 533 kts 107°
2026-05-04 00:19 64.64567 -37.06235 37123 ft 534 kts 108°
2026-05-04 00:20 64.62368 -36.89687 37109 ft 534 kts 107°
2026-05-04 00:20 64.60158 -36.73214 37105 ft 535 kts 107°
2026-05-04 00:21 64.57917 -36.56679 37108 ft 535 kts 107°
2026-05-04 00:21 64.55666 -36.40234 37109 ft 536 kts 107°
2026-05-04 00:22 64.53381 -36.23704 37110 ft 536 kts 108°
2026-05-04 00:22 64.51101 -36.07364 37092 ft 536 kts 108°
2026-05-04 00:23 64.48773 -35.90842 37100 ft 536 kts 108°
2026-05-04 00:23 64.46454 -35.74543 37106 ft 535 kts 108°
2026-05-04 00:24 64.44108 -35.58204 37108 ft 535 kts 108°
2026-05-04 00:24 64.41743 -35.41896 37106 ft 535 kts 108°
2026-05-04 00:25 64.39346 -35.25506 37099 ft 535 kts 109°
2026-05-04 00:25 64.36957 -35.09333 37102 ft 536 kts 109°
2026-05-04 00:26 64.34536 -34.93096 37103 ft 535 kts 109°
2026-05-04 00:26 64.32098 -34.76890 37102 ft 534 kts 109°
2026-05-04 00:27 64.29649 -34.60753 37103 ft 536 kts 109°
2026-05-04 00:27 64.27184 -34.44662 37099 ft 535 kts 109°
2026-05-04 00:28 64.24711 -34.28658 37092 ft 534 kts 110°
2026-05-04 00:28 64.22198 -34.12537 37089 ft 535 kts 110°
2026-05-04 00:29 64.19679 -33.96527 37091 ft 533 kts 110°
2026-05-04 00:29 64.17161 -33.80658 37087 ft 534 kts 110°
2026-05-04 00:30 64.14602 -33.64671 37090 ft 533 kts 110°
2026-05-04 00:30 64.12042 -33.48816 37090 ft 534 kts 110°
2026-05-04 00:31 64.09440 -33.32836 37093 ft 533 kts 111°
2026-05-04 00:31 64.06844 -33.17026 37089 ft 534 kts 111°
2026-05-04 00:32 64.04217 -33.01168 37094 ft 533 kts 111°
2026-05-04 00:32 64.01575 -32.85355 37097 ft 535 kts 111°
2026-05-04 00:33 63.97595 -32.61773 37096 ft 533 kts 111°
2026-05-04 00:34 63.94917 -32.46064 37101 ft 533 kts 111°
2026-05-04 00:34 63.92207 -32.30304 37101 ft 534 kts 112°
2026-05-04 00:35 63.89500 -32.14694 37091 ft 533 kts 112°
2026-05-04 00:35 63.86777 -31.99112 37099 ft 533 kts 112°
2026-05-04 00:36 63.84040 -31.83583 37092 ft 532 kts 112°
2026-05-04 00:36 63.81259 -31.67925 37093 ft 532 kts 112°
2026-05-04 00:37 63.78495 -31.52484 37090 ft 533 kts 112°
2026-05-04 00:37 63.75711 -31.37057 37086 ft 532 kts 112°
2026-05-04 00:38 63.72892 -31.21558 37076 ft 532 kts 113°
2026-05-04 00:38 63.70059 -31.06106 37078 ft 534 kts 113°
2026-05-04 00:39 63.67211 -30.90693 37072 ft 532 kts 113°
2026-05-04 00:39 63.64355 -30.75358 37080 ft 533 kts 113°
2026-05-04 00:40 63.61489 -30.60085 37082 ft 532 kts 113°
2026-05-04 00:40 63.58577 -30.44681 37084 ft 532 kts 113°
2026-05-04 00:41 63.55654 -30.29348 37082 ft 534 kts 114°
2026-05-04 00:41 63.52728 -30.14106 37101 ft 535 kts 114°
2026-05-04 00:42 63.49752 -29.98764 37087 ft 534 kts 114°
2026-05-04 00:42 63.46787 -29.83705 37100 ft 533 kts 114°
2026-05-04 00:43 63.43789 -29.68605 37097 ft 533 kts 114°
2026-05-04 00:43 63.40761 -29.53464 37094 ft 533 kts 114°
2026-05-04 00:44 63.37716 -29.38349 37085 ft 533 kts 114°
2026-05-04 00:44 63.34663 -29.23312 37113 ft 534 kts 115°
2026-05-04 00:45 63.31585 -29.08257 37099 ft 534 kts 115°
2026-05-04 00:45 63.28509 -28.93327 37095 ft 535 kts 115°
2026-05-04 00:46 63.25394 -28.78314 37104 ft 534 kts 115°
2026-05-04 00:46 63.22277 -28.63396 37099 ft 534 kts 115°
2026-05-04 00:47 63.19140 -28.48491 37097 ft 533 kts 115°
2026-05-04 00:47 63.15981 -28.33590 37101 ft 534 kts 116°
2026-05-04 00:48 63.12824 -28.18802 37084 ft 533 kts 116°
2026-05-04 00:48 63.09640 -28.03994 37073 ft 533 kts 116°
2026-05-04 00:49 63.06443 -27.89225 37089 ft 533 kts 116°
2026-05-04 00:49 63.03245 -27.74560 37094 ft 533 kts 116°
2026-05-04 00:50 63.00021 -27.59873 37105 ft 533 kts 116°
2026-05-04 00:50 62.96783 -27.45229 37104 ft 534 kts 116°
2026-05-04 00:51 62.93515 -27.30544 37101 ft 535 kts 117°
2026-05-04 00:51 62.90255 -27.16000 37102 ft 533 kts 117°
2026-05-04 00:52 62.86957 -27.01385 37094 ft 534 kts 117°
2026-05-04 00:52 62.83667 -26.86907 37095 ft 534 kts 117°
2026-05-04 00:53 62.80339 -26.72356 37109 ft 533 kts 117°
2026-05-04 00:53 62.77031 -26.57990 37106 ft 534 kts 117°
2026-05-04 00:54 62.73680 -26.43538 37099 ft 533 kts 117°
2026-05-04 00:54 62.70327 -26.29172 37081 ft 532 kts 118°
2026-05-04 00:55 62.66959 -26.14834 37071 ft 532 kts 118°
2026-05-04 00:55 62.63582 -26.00554 37088 ft 531 kts 118°
2026-05-04 00:56 62.60180 -25.86261 37102 ft 532 kts 118°
2026-05-04 00:56 62.56785 -25.72094 37086 ft 531 kts 118°
2026-05-04 00:57 62.53358 -25.57887 37068 ft 532 kts 118°
2026-05-04 00:57 62.49929 -25.43761 37097 ft 533 kts 118°
2026-05-04 00:58 62.46456 -25.29544 37079 ft 532 kts 120°
2026-05-04 00:58 62.42991 -25.15454 37100 ft 532 kts 120°
2026-05-04 00:59 62.39507 -25.01376 37081 ft 532 kts 119°
2026-05-04 00:59 62.36002 -24.87307 37087 ft 532 kts 119°
2026-05-04 01:00 62.32499 -24.73329 37094 ft 532 kts 120°
2026-05-04 01:00 62.28983 -24.59393 37082 ft 532 kts 120°
2026-05-04 01:01 62.25449 -24.45472 37102 ft 532 kts 120°
2026-05-04 01:01 62.21893 -24.31549 37067 ft 531 kts 121°
2026-05-04 01:02 62.18345 -24.17746 37068 ft 531 kts 120°
2026-05-04 01:02 62.14748 -24.03839 37058 ft 532 kts 120°
2026-05-04 01:03 62.11167 -23.90080 37079 ft 532 kts 121°
2026-05-04 01:03 62.07552 -23.76276 37068 ft 532 kts 121°
2026-05-04 01:04 62.03934 -23.62549 37090 ft 533 kts 120°
2026-05-04 01:04 62.00286 -23.48788 37073 ft 531 kts 121°
2026-05-04 01:05 61.96654 -23.35173 37063 ft 532 kts 121°
2026-05-04 01:05 61.92986 -23.21504 37059 ft 531 kts 121°
2026-05-04 01:06 61.89322 -23.07936 37060 ft 532 kts 121°
2026-05-04 01:06 61.85622 -22.94315 37047 ft 532 kts 121°
2026-05-04 01:07 61.81937 -22.80830 37046 ft 532 kts 121°
2026-05-04 01:07 61.78223 -22.67323 37045 ft 532 kts 121°
2026-05-04 01:08 61.74501 -22.53864 37045 ft 531 kts 121°
2026-05-04 01:08 61.70767 -22.40445 37052 ft 530 kts 121°
2026-05-04 01:09 61.66990 -22.26951 37048 ft 531 kts 122°
2026-05-04 01:09 61.63198 -22.13483 37035 ft 532 kts 122°
2026-05-04 01:10 61.59423 -22.00156 37040 ft 532 kts 122°
2026-05-04 01:10 61.55594 -21.86714 37033 ft 531 kts 122°
2026-05-04 01:11 61.51780 -21.73404 37035 ft 530 kts 122°
2026-05-04 01:11 61.47993 -21.60270 37037 ft 529 kts 122°
2026-05-04 01:12 61.44156 -21.47035 37033 ft 530 kts 122°
2026-05-04 01:12 61.40327 -21.33903 37032 ft 530 kts 123°
2026-05-04 01:13 61.36458 -21.20711 37029 ft 529 kts 123°
2026-05-04 01:13 61.32564 -21.07511 37039 ft 531 kts 123°
2026-05-04 01:14 61.28683 -20.94429 37029 ft 529 kts 123°
2026-05-04 01:14 61.24811 -20.81453 37020 ft 529 kts 123°
2026-05-04 01:15 61.20916 -20.68473 37037 ft 529 kts 123°
2026-05-04 01:15 61.17008 -20.55524 37024 ft 529 kts 123°
2026-05-04 01:16 61.13086 -20.42601 37030 ft 530 kts 123°
2026-05-04 01:16 61.09135 -20.29658 37035 ft 530 kts 124°
2026-05-04 01:17 61.05173 -20.16748 37025 ft 529 kts 124°
2026-05-04 01:17 61.01220 -20.03940 37031 ft 529 kts 124°
2026-05-04 01:18 60.97176 -19.91244 37027 ft 528 kts 125°
2026-05-04 01:18 60.93094 -19.78572 37030 ft 529 kts 125°
2026-05-04 01:19 60.89036 -19.66052 37018 ft 528 kts 125°
2026-05-04 01:19 60.84939 -19.53485 37028 ft 530 kts 125°
2026-05-04 01:20 60.80846 -19.40998 37011 ft 529 kts 125°
2026-05-04 01:20 60.76726 -19.28498 36997 ft 529 kts 126°
2026-05-04 01:21 60.72588 -19.16013 37013 ft 529 kts 126°
2026-05-04 01:21 60.68441 -19.03565 36985 ft 528 kts 126°
2026-05-04 01:22 60.64253 -18.91066 36990 ft 528 kts 126°
2026-05-04 01:22 60.60109 -18.78760 36990 ft 527 kts 126°
2026-05-04 01:23 60.55920 -18.66391 37004 ft 529 kts 126°
2026-05-04 01:23 60.51763 -18.54178 37009 ft 528 kts 126°
2026-05-04 01:24 60.47572 -18.41928 36999 ft 527 kts 126°
2026-05-04 01:24 60.43377 -18.29733 37005 ft 527 kts 127°
2026-05-04 01:25 60.39158 -18.17533 37005 ft 527 kts 127°
2026-05-04 01:25 60.34970 -18.05483 37016 ft 528 kts 127°
2026-05-04 01:26 60.30742 -17.93383 37005 ft 528 kts 127°
2026-05-04 01:26 60.26508 -17.81328 36975 ft 527 kts 127°
2026-05-04 01:27 60.22227 -17.69202 36997 ft 527 kts 127°
2026-05-04 01:27 60.17981 -17.57236 36985 ft 526 kts 127°
2026-05-04 01:28 60.13679 -17.45176 36996 ft 528 kts 126°
2026-05-04 01:28 60.09399 -17.33238 36990 ft 527 kts 128°
2026-05-04 01:29 60.05071 -17.21230 36981 ft 527 kts 127°
2026-05-04 01:29 60.00766 -17.09345 36979 ft 526 kts 127°
2026-05-04 01:30 59.96466 -16.97534 36972 ft 528 kts 128°
2026-05-04 01:30 59.92144 -16.85720 36978 ft 526 kts 127°
2026-05-04 01:31 59.87804 -16.73919 36968 ft 527 kts 127°
2026-05-04 01:31 59.83443 -16.62123 36972 ft 527 kts 127°
2026-05-04 01:32 59.79113 -16.50465 36981 ft 527 kts 127°
2026-05-04 01:32 59.74718 -16.38692 36955 ft 527 kts 127°
2026-05-04 01:33 59.70339 -16.27023 36962 ft 526 kts 128°
2026-05-04 01:33 59.65943 -16.15364 36974 ft 526 kts 128°
2026-05-04 01:34 59.61538 -16.03741 36970 ft 527 kts 128°
2026-05-04 01:34 59.57132 -15.92172 36984 ft 527 kts 128°
2026-05-04 01:35 59.52737 -15.80689 36966 ft 526 kts 128°
2026-05-04 01:35 59.48302 -15.69156 36986 ft 527 kts 128°
2026-05-04 01:36 59.43886 -15.57730 36979 ft 527 kts 128°
2026-05-04 01:36 59.39445 -15.46295 36983 ft 527 kts 128°
2026-05-04 01:37 59.35013 -15.34940 36977 ft 526 kts 129°
2026-05-04 01:37 59.30545 -15.23546 36968 ft 526 kts 128°
2026-05-04 01:38 59.26078 -15.12210 36989 ft 525 kts 128°
2026-05-04 01:38 59.21619 -15.00951 36982 ft 524 kts 128°
2026-05-04 01:39 59.17145 -14.89705 36982 ft 526 kts 128°
2026-05-04 01:39 59.12631 -14.78413 36988 ft 524 kts 128°
2026-05-04 01:40 59.08158 -14.67277 36982 ft 525 kts 128°
2026-05-04 01:40 59.03643 -14.56092 36983 ft 525 kts 128°
2026-05-04 01:41 58.99128 -14.44959 36980 ft 524 kts 128°
2026-05-04 01:41 58.94616 -14.33884 36986 ft 525 kts 129°
2026-05-04 01:42 58.90102 -14.22857 36979 ft 526 kts 129°
2026-05-04 01:42 58.85524 -14.11726 36971 ft 525 kts 129°
2026-05-04 01:43 58.80980 -14.00732 36967 ft 525 kts 129°
2026-05-04 01:43 58.76422 -13.89752 36982 ft 525 kts 129°
2026-05-04 01:44 58.71835 -13.78755 36985 ft 525 kts 129°
2026-05-04 01:44 58.67251 -13.67818 36988 ft 524 kts 129°
2026-05-04 01:45 58.62646 -13.56882 36996 ft 524 kts 129°
2026-05-04 01:45 58.55766 -13.40635 36982 ft 525 kts 129°
2026-05-04 01:46 58.51178 -13.29862 36991 ft 524 kts 129°
2026-05-04 01:46 58.46551 -13.19049 36988 ft 523 kts 129°
2026-05-04 01:47 58.41932 -13.08304 36990 ft 523 kts 129°
2026-05-04 01:47 58.37323 -12.97630 36988 ft 523 kts 129°
2026-05-04 01:48 58.32710 -12.86995 36998 ft 523 kts 129°
2026-05-04 01:48 58.28063 -12.76331 36998 ft 522 kts 129°
2026-05-04 01:49 58.23407 -12.65693 37001 ft 523 kts 129°
2026-05-04 01:49 58.18769 -12.55145 37001 ft 522 kts 129°
2026-05-04 01:50 58.14111 -12.44598 36997 ft 522 kts 129°
2026-05-04 01:50 58.09457 -12.34108 37009 ft 521 kts 130°
2026-05-04 01:51 58.04788 -12.23631 37009 ft 522 kts 130°
2026-05-04 01:51 58.00091 -12.13138 37008 ft 520 kts 130°
2026-05-04 01:52 57.95406 -12.02719 37014 ft 520 kts 130°
2026-05-04 01:52 57.90713 -11.92326 37009 ft 520 kts 130°
2026-05-04 01:53 57.86006 -11.81949 37009 ft 520 kts 130°
2026-05-04 01:53 57.81310 -11.71644 37007 ft 520 kts 129°
2026-05-04 01:54 57.76615 -11.61385 37013 ft 520 kts 129°
2026-05-04 01:54 57.71915 -11.51159 37007 ft 519 kts 129°
2026-05-04 01:55 57.67184 -11.40910 37015 ft 520 kts 129°
2026-05-04 01:55 57.62470 -11.30741 37009 ft 519 kts 130°
2026-05-04 01:56 57.57806 -11.20725 37008 ft 519 kts 130°
2026-05-04 01:56 57.53059 -11.10575 37016 ft 519 kts 130°
2026-05-04 01:57 57.48325 -11.00493 37023 ft 519 kts 130°
2026-05-04 01:57 57.43583 -10.90441 37027 ft 518 kts 130°
2026-05-04 01:58 57.38860 -10.80470 37026 ft 517 kts 130°
2026-05-04 01:58 57.34071 -10.70402 37032 ft 517 kts 129°
2026-05-04 01:59 57.29317 -10.60452 37031 ft 519 kts 130°
2026-05-04 01:59 57.24544 -10.50504 37034 ft 518 kts 129°
2026-05-04 02:00 57.19748 -10.40549 37037 ft 516 kts 129°
2026-05-04 02:00 57.14988 -10.30711 37038 ft 516 kts 130°
2026-05-04 02:01 57.10170 -10.20796 37045 ft 516 kts 130°
2026-05-04 02:01 57.05373 -10.10965 37052 ft 514 kts 130°
2026-05-04 02:02 57.00725 -10.00990 37050 ft 512 kts 122°
2026-05-04 02:02 56.97570 -9.89479 37049 ft 506 kts 104°
2026-05-04 02:03 56.95957 -9.77019 37057 ft 504 kts 98°
2026-05-04 02:03 56.94355 -9.64513 37055 ft 504 kts 100°
2026-05-04 02:04 56.92017 -9.52416 37056 ft 510 kts 115°
2026-05-04 02:04 56.87777 -9.41918 37042 ft 515 kts 132°
2026-05-04 02:05 56.82628 -9.32868 37047 ft 517 kts 135°
2026-05-04 02:05 56.77401 -9.23837 37046 ft 516 kts 135°
2026-05-04 02:06 56.72136 -9.14781 37047 ft 517 kts 135°
2026-05-04 02:06 56.66899 -9.05810 37048 ft 518 kts 135°
2026-05-04 02:07 56.61664 -8.96881 37047 ft 517 kts 134°
2026-05-04 02:07 56.56418 -8.87970 37046 ft 516 kts 134°
2026-05-04 02:08 56.51203 -8.79145 37044 ft 514 kts 134°
2026-05-04 02:08 56.45960 -8.70308 37044 ft 515 kts 134°
2026-05-04 02:09 56.40703 -8.61484 37047 ft 514 kts 134°
2026-05-04 02:09 56.35435 -8.52676 37048 ft 514 kts 134°
2026-05-04 02:10 56.30201 -8.43957 37043 ft 514 kts 134°
2026-05-04 02:10 56.24901 -8.35165 37046 ft 515 kts 134°
2026-05-04 02:11 56.19637 -8.26467 37041 ft 515 kts 135°
2026-05-04 02:11 56.14350 -8.17764 37041 ft 515 kts 135°
2026-05-04 02:12 56.09078 -8.09120 37045 ft 515 kts 135°
2026-05-04 02:12 56.03809 -8.00514 37055 ft 513 kts 135°
2026-05-04 02:13 55.98528 -7.91923 37056 ft 512 kts 135°
2026-05-04 02:13 55.93272 -7.83403 37049 ft 514 kts 135°
2026-05-04 02:14 55.87998 -7.74889 37037 ft 511 kts 135°
2026-05-04 02:14 55.82703 -7.66373 37030 ft 513 kts 135°
2026-05-04 02:15 55.77407 -7.57887 37049 ft 512 kts 134°
2026-05-04 02:15 55.72110 -7.49433 37039 ft 513 kts 134°
2026-05-04 02:16 55.66835 -7.41047 37044 ft 511 kts 134°
2026-05-04 02:16 55.61541 -7.32659 37034 ft 512 kts 135°
2026-05-04 02:17 55.56227 -7.24273 37034 ft 513 kts 135°
2026-05-04 02:17 55.50941 -7.15964 37033 ft 510 kts 135°
2026-05-04 02:18 55.45644 -7.07667 37025 ft 511 kts 135°
2026-05-04 02:18 55.40334 -6.99381 37025 ft 511 kts 135°
2026-05-04 02:19 55.35055 -6.91176 37030 ft 510 kts 135°
2026-05-04 02:19 55.29727 -6.82924 37031 ft 509 kts 135°
2026-05-04 02:20 55.24442 -6.74769 37033 ft 509 kts 135°
2026-05-04 02:20 55.19140 -6.66617 37034 ft 510 kts 135°
2026-05-04 02:21 55.13838 -6.58497 37034 ft 508 kts 135°
2026-05-04 02:21 55.08546 -6.50420 37028 ft 508 kts 135°
2026-05-04 02:22 55.03225 -6.42329 37021 ft 509 kts 135°
2026-05-04 02:22 54.97904 -6.34268 37026 ft 508 kts 136°
2026-05-04 02:23 54.92593 -6.26251 37013 ft 508 kts 136°
2026-05-04 02:23 54.87266 -6.18239 37001 ft 508 kts 136°
2026-05-04 02:24 54.81979 -6.10316 37018 ft 506 kts 136°
2026-05-04 02:24 54.76660 -6.02375 37019 ft 507 kts 136°
2026-05-04 02:25 54.71317 -5.94425 37024 ft 504 kts 136°
2026-05-04 02:25 54.66034 -5.86594 37024 ft 505 kts 136°
2026-05-04 02:26 54.60719 -5.78741 37015 ft 504 kts 136°
2026-05-04 02:26 54.55391 -5.70899 37020 ft 505 kts 136°
2026-05-04 02:27 54.50061 -5.63083 37018 ft 503 kts 136°
2026-05-04 02:27 54.44765 -5.55341 37019 ft 504 kts 136°
2026-05-04 02:28 54.39441 -5.47588 37014 ft 502 kts 136°
2026-05-04 02:28 54.34148 -5.39907 37003 ft 503 kts 136°
2026-05-04 02:29 54.28824 -5.32207 37013 ft 503 kts 137°
2026-05-04 02:29 54.23472 -5.24493 37001 ft 502 kts 137°
2026-05-04 02:30 54.18176 -5.16889 37007 ft 499 kts 137°
2026-05-04 02:30 54.12861 -5.09281 37004 ft 501 kts 137°
2026-05-04 02:31 54.07528 -5.01676 37006 ft 500 kts 137°
2026-05-04 02:31 54.02214 -4.94124 37008 ft 500 kts 137°
2026-05-04 02:32 53.97007 -4.86329 36997 ft 497 kts 129°
2026-05-04 02:32 53.92864 -4.77135 37002 ft 494 kts 122°
2026-05-04 02:33 53.88847 -4.67737 37263 ft 493 kts 123°
2026-05-04 02:33 53.86841 -4.63085 37086 ft 493 kts 123°
2026-05-04 02:33 53.84817 -4.58417 37014 ft 488 kts 123°
2026-05-04 02:34 53.80777 -4.49151 36999 ft 492 kts 123°
2026-05-04 02:34 53.76745 -4.39954 36979 ft 491 kts 123°
2026-05-04 02:35 53.72684 -4.30742 36983 ft 492 kts 124°
2026-05-04 02:35 53.68595 -4.21506 36999 ft 492 kts 124°
2026-05-04 02:36 53.64512 -4.12324 36984 ft 490 kts 125°
2026-05-04 02:36 53.60423 -4.03159 36989 ft 492 kts 125°
2026-05-04 02:37 53.56329 -3.94022 36995 ft 491 kts 125°
2026-05-04 02:37 53.52235 -3.84916 36986 ft 492 kts 125°
2026-05-04 02:38 53.48098 -3.75749 36988 ft 492 kts 125°
2026-05-04 02:38 53.43983 -3.66663 36988 ft 492 kts 126°
2026-05-04 02:39 53.39800 -3.57622 36970 ft 492 kts 129°
2026-05-04 02:39 53.35281 -3.49078 36979 ft 493 kts 130°
2026-05-04 02:40 53.30759 -3.40562 36973 ft 493 kts 130°
2026-05-04 02:40 53.26217 -3.31998 36973 ft 493 kts 131°
2026-05-04 02:41 53.21686 -3.23464 36977 ft 493 kts 131°
2026-05-04 02:41 53.17170 -3.14974 36980 ft 492 kts 131°
2026-05-04 02:42 53.12626 -3.06457 36986 ft 492 kts 131°
2026-05-04 02:42 53.08093 -2.97984 36782 ft 492 kts 131°
2026-05-04 02:43 53.05821 -2.93748 37131 ft 492 kts 131°
2026-05-04 02:43 53.03532 -2.89486 37031 ft 497 kts 131°
2026-05-04 02:43 52.98999 -2.81069 36980 ft 491 kts 131°
2026-05-04 02:44 52.94432 -2.72618 36976 ft 493 kts 131°
2026-05-04 02:44 52.89883 -2.64228 36978 ft 493 kts 131°
2026-05-04 02:45 52.85307 -2.55817 36975 ft 493 kts 131°
2026-05-04 02:45 52.80543 -2.47711 36968 ft 491 kts 141°
2026-05-04 02:46 52.74963 -2.41253 36971 ft 492 kts 146°
2026-05-04 02:46 52.69296 -2.35001 36964 ft 493 kts 146°
2026-05-04 02:47 52.63638 -2.28783 36959 ft 492 kts 147°
2026-05-04 02:47 52.57962 -2.22566 36958 ft 492 kts 147°
2026-05-04 02:48 52.52288 -2.16371 36960 ft 491 kts 147°
2026-05-04 02:48 52.46627 -2.10211 36958 ft 490 kts 147°
2026-05-04 02:49 52.40953 -2.04056 36959 ft 489 kts 147°
2026-05-04 02:49 52.35327 -1.97968 36956 ft 489 kts 147°
2026-05-04 02:50 52.29677 -1.91879 36956 ft 488 kts 147°
2026-05-04 02:50 52.24032 -1.85814 36955 ft 487 kts 147°
2026-05-04 02:51 52.18376 -1.79755 36953 ft 487 kts 147°
2026-05-04 02:51 52.12737 -1.73732 36948 ft 487 kts 147°
2026-05-04 02:52 52.07072 -1.67699 36943 ft 487 kts 147°
2026-05-04 02:52 52.01413 -1.61674 36943 ft 487 kts 147°
2026-05-04 02:53 51.95787 -1.55727 36943 ft 486 kts 148°
2026-05-04 02:53 51.90098 -1.49734 36945 ft 487 kts 148°
2026-05-04 02:54 51.84453 -1.43802 36949 ft 486 kts 148°
2026-05-04 02:54 51.78804 -1.37878 36950 ft 485 kts 148°
2026-05-04 02:55 51.70347 -1.29043 36947 ft 485 kts 149°
2026-05-04 02:56 51.64705 -1.23173 36943 ft 485 kts 149°
2026-05-04 02:56 51.59052 -1.17306 36942 ft 485 kts 149°
2026-05-04 02:57 51.53406 -1.11467 36939 ft 484 kts 149°
2026-05-04 02:57 51.47737 -1.05620 36931 ft 484 kts 149°
2026-05-04 02:58 51.42083 -0.99807 36935 ft 484 kts 149°
2026-05-04 02:58 51.36450 -0.94031 36939 ft 483 kts 149°
2026-05-04 02:59 51.30803 -0.88260 36939 ft 483 kts 149°
2026-05-04 02:59 51.25173 -0.82522 36938 ft 482 kts 149°
2026-05-04 03:00 51.19537 -0.76796 36937 ft 482 kts 149°
2026-05-04 03:00 51.13892 -0.71076 36936 ft 482 kts 149°
2026-05-04 03:01 51.08297 -0.65274 36929 ft 483 kts 144°
2026-05-04 03:01 51.03603 -0.57646 36929 ft 489 kts 127°
2026-05-04 03:02 50.99960 -0.48539 36930 ft 490 kts 123°
2026-05-04 03:02 50.96397 -0.39377 36937 ft 491 kts 124°
2026-05-04 03:03 50.92811 -0.30199 36948 ft 490 kts 125°
2026-05-04 03:03 50.89233 -0.21076 36947 ft 490 kts 125°
2026-05-04 03:04 50.85631 -0.11930 36952 ft 489 kts 125°
2026-05-04 03:04 50.82034 -0.02829 36955 ft 490 kts 125°
2026-05-04 03:05 50.78439 0.06233 36949 ft 489 kts 125°
2026-05-04 03:05 50.74189 0.14400 36944 ft 481 kts 141°
2026-05-04 03:06 50.69084 0.21105 36945 ft 479 kts 144°
2026-05-04 03:06 50.63926 0.27720 36937 ft 479 kts 144°
2026-05-04 03:07 50.58746 0.34333 36924 ft 479 kts 144°
2026-05-04 03:07 50.53654 0.40813 36302 ft 475 kts 144°
2026-05-04 03:07 50.51090 0.44062 35441 ft 483 kts 145°
2026-05-04 03:08 50.48447 0.47408 34524 ft 488 kts 146°
2026-05-04 03:08 50.45828 0.50721 33572 ft 486 kts 146°
2026-05-04 03:08 50.43235 0.53998 32591 ft 481 kts 147°
2026-05-04 03:08 50.40647 0.57265 31664 ft 476 kts 147°
2026-05-04 03:09 50.38096 0.60480 30775 ft 470 kts 147°
2026-05-04 03:09 50.35605 0.63615 30171 ft 458 kts 147°
2026-05-04 03:09 50.33169 0.66679 29730 ft 444 kts 148°
2026-05-04 03:09 50.30792 0.69664 29241 ft 432 kts 148°
2026-05-04 03:10 50.28424 0.72618 28755 ft 450 kts 148°
2026-05-04 03:10 50.25967 0.75679 28177 ft 455 kts 147°
2026-05-04 03:10 50.23514 0.78744 27622 ft 450 kts 147°
2026-05-04 03:10 50.21078 0.81785 27073 ft 445 kts 147°
2026-05-04 03:11 50.18676 0.84778 26533 ft 442 kts 146°
2026-05-04 03:11 50.16296 0.87737 25987 ft 441 kts 146°
2026-05-04 03:11 50.13885 0.90732 25424 ft 439 kts 146°
2026-05-04 03:11 50.11507 0.93682 24859 ft 438 kts 146°
2026-05-04 03:12 50.09161 0.96588 24303 ft 437 kts 145°
2026-05-04 03:12 50.06774 0.99504 23799 ft 431 kts 148°
2026-05-04 03:12 50.04275 1.01839 23663 ft 414 kts 156°
2026-05-04 03:12 50.01724 1.03813 23323 ft 412 kts 158°
2026-05-04 03:13 49.99152 1.05763 22915 ft 409 kts 158°
2026-05-04 03:13 49.96627 1.07672 22532 ft 404 kts 158°
2026-05-04 03:13 49.94096 1.09580 22172 ft 401 kts 158°
2026-05-04 03:13 49.91605 1.11453 21814 ft 401 kts 158°
2026-05-04 03:14 49.89090 1.13342 21440 ft 398 kts 158°
2026-05-04 03:14 49.86641 1.15179 21088 ft 395 kts 158°
2026-05-04 03:14 49.84154 1.17042 20733 ft 393 kts 158°
2026-05-04 03:14 49.81715 1.18866 20378 ft 391 kts 157°
2026-05-04 03:15 49.79276 1.20687 20022 ft 389 kts 157°
2026-05-04 03:15 49.76863 1.22488 19669 ft 388 kts 157°
2026-05-04 03:15 49.74424 1.24305 19313 ft 386 kts 157°
2026-05-04 03:15 49.72044 1.26077 18967 ft 384 kts 157°
2026-05-04 03:16 49.69633 1.27869 18615 ft 382 kts 157°
2026-05-04 03:16 49.67261 1.29631 18271 ft 381 kts 157°
2026-05-04 03:16 49.64869 1.31406 17928 ft 379 kts 157°
2026-05-04 03:16 49.62523 1.33144 17587 ft 377 kts 156°
2026-05-04 03:17 49.60147 1.34903 17240 ft 375 kts 156°
2026-05-04 03:17 49.57815 1.36627 16900 ft 373 kts 157°
2026-05-04 03:17 49.55477 1.38354 16562 ft 372 kts 156°
2026-05-04 03:17 49.53179 1.40050 16230 ft 371 kts 156°
2026-05-04 03:18 49.50840 1.41774 15904 ft 369 kts 156°
2026-05-04 03:18 49.48553 1.43457 15572 ft 367 kts 156°
2026-05-04 03:18 49.46246 1.45154 15237 ft 366 kts 156°
2026-05-04 03:18 49.43946 1.46844 14902 ft 365 kts 156°
2026-05-04 03:19 49.41677 1.48510 14569 ft 363 kts 156°
2026-05-04 03:19 49.39411 1.50171 14234 ft 361 kts 156°
2026-05-04 03:19 49.37143 1.51833 13906 ft 360 kts 156°
2026-05-04 03:19 49.34893 1.53510 13573 ft 359 kts 152°
2026-05-04 03:20 49.32858 1.55764 13245 ft 360 kts 138°
2026-05-04 03:20 49.31251 1.58724 12911 ft 362 kts 124°
2026-05-04 03:20 49.30178 1.62159 12494 ft 364 kts 109°
2026-05-04 03:20 49.29436 1.65852 12031 ft 360 kts 112°
2026-05-04 03:21 49.28558 1.69406 11576 ft 357 kts 114°
2026-05-04 03:21 49.27435 1.72756 11119 ft 351 kts 127°
2026-05-04 03:21 49.25881 1.75558 10812 ft 342 kts 137°
2026-05-04 03:21 49.24078 1.77829 10421 ft 328 kts 147°
2026-05-04 03:22 49.22252 1.79746 10141 ft 314 kts 149°
2026-05-04 03:22 49.20402 1.81406 9895 ft 299 kts 154°
2026-05-04 03:22 49.18601 1.82789 9616 ft 289 kts 156°
2026-05-04 03:22 49.16808 1.84054 9305 ft 280 kts 157°
2026-05-04 03:23 49.15024 1.85143 9003 ft 270 kts 169°
2026-05-04 03:23 49.13181 1.85553 8717 ft 266 kts 175°
2026-05-04 03:23 49.11362 1.85836 8416 ft 264 kts 176°
2026-05-04 03:23 49.09535 1.86117 8117 ft 262 kts 176°
2026-05-04 03:24 49.07741 1.86390 7860 ft 258 kts 176°
2026-05-04 03:24 49.05973 1.86659 7657 ft 254 kts 176°
2026-05-04 03:24 49.04248 1.86935 7449 ft 249 kts 172°
2026-05-04 03:24 49.02662 1.87888 7226 ft 247 kts 146°
2026-05-04 03:25 49.01541 1.89826 6996 ft 245 kts 118°
2026-05-04 03:25 49.00979 1.92256 6789 ft 242 kts 108°
2026-05-04 03:25 49.00519 1.94722 6591 ft 241 kts 108°
2026-05-04 03:25 49.00067 1.97158 6394 ft 240 kts 108°
2026-05-04 03:26 48.99614 1.99598 6190 ft 239 kts 108°
2026-05-04 03:26 48.99163 2.02022 5981 ft 238 kts 108°
2026-05-04 03:26 48.98711 2.04454 5770 ft 237 kts 108°
2026-05-04 03:26 48.98266 2.06841 5564 ft 236 kts 108°
2026-05-04 03:27 48.97820 2.09231 5362 ft 235 kts 108°
2026-05-04 03:27 48.97370 2.11639 5154 ft 234 kts 108°
2026-05-04 03:27 48.97018 2.14041 4984 ft 232 kts 94°
2026-05-04 03:27 48.97033 2.16474 4971 ft 235 kts 87°
2026-05-04 03:28 48.97165 2.18947 4974 ft 236 kts 86°
2026-05-04 03:28 48.97317 2.21450 4904 ft 238 kts 86°
2026-05-04 03:28 48.97468 2.23948 4585 ft 240 kts 86°
2026-05-04 03:28 48.97616 2.26496 4264 ft 241 kts 86°
2026-05-04 03:29 48.97762 2.29028 3952 ft 238 kts 86°
2026-05-04 03:29 48.97902 2.31460 3642 ft 229 kts 86°
2026-05-04 03:29 48.98040 2.33831 3345 ft 222 kts 86°
2026-05-04 03:29 48.98173 2.36139 3054 ft 216 kts 86°
2026-05-04 03:30 48.98299 2.38362 2767 ft 200 kts 86°
2026-05-04 03:30 48.98413 2.40377 2514 ft 186 kts 86°
2026-05-04 03:30 48.98519 2.42282 2269 ft 176 kts 86°
2026-05-04 03:30 48.98620 2.44109 2029 ft 168 kts 86°
2026-05-04 03:31 48.98715 2.45820 1798 ft 160 kts 85°
2026-05-04 03:31 48.98814 2.47464 1583 ft 151 kts 85°
2026-05-04 03:31 48.98886 2.49032 1350 ft 149 kts 85°
2026-05-04 03:31 48.98975 2.50587 1147 ft 147 kts 85°
2026-05-04 03:32 48.99055 2.52145 956 ft 147 kts 85°
2026-05-04 03:32 48.99136 2.53681 741 ft 147 kts 85°
2026-05-04 03:32 48.99218 2.55216 544 ft 145 kts 85°
2026-05-04 03:32 48.99302 2.56761 364 ft 145 kts 85°
2026-05-04 03:33 48.99377 2.58187 331 ft 125 kts 83°
2026-05-04 03:33 48.99435 2.59265 322 ft 71 kts 85°
2026-05-04 03:33 48.99466 2.59738 320 ft 24 kts 78°
2026-05-04 03:33 48.99508 2.59907 320 ft 16 kts 55°
2026-05-04 03:34 48.99586 2.59974 321 ft 8 kts
2026-05-04 03:34 48.99635 2.59933 321 ft 10 kts 291°
2026-05-04 03:34 48.99636 2.59795 320 ft 13 kts 265°
2026-05-04 03:34 48.99668 2.59701 320 ft 9 kts 340°
2026-05-04 03:35 48.99747 2.59682 322 ft 12 kts 353°
2026-05-04 03:35 48.99838 2.59668 324 ft 13 kts 355°
2026-05-04 03:35 48.99932 2.59658 329 ft 14 kts 355°
2026-05-04 03:35 49.00022 2.59647 334 ft 12 kts 354°
2026-05-04 03:36 49.00075 2.59558 335 ft 14 kts 271°
2026-05-04 03:36 49.00068 2.59397 335 ft 15 kts 264°
2026-05-04 03:36 49.00059 2.59227 334 ft 17 kts 265°
2026-05-04 03:36 49.00049 2.59036 334 ft 18 kts 265°
2026-05-04 03:37 49.00040 2.58853 334 ft 14 kts 272°
2026-05-04 03:37 49.00103 2.58761 335 ft 13 kts 358°
2026-05-04 03:37 49.00175 2.58759 337 ft 4 kts 357°
2026-05-04 03:37 49.00206 2.58737 337 ft 6 kts 300°
2026-05-04 03:38 49.00210 2.58672 337 ft 3 kts 265°
2026-05-04 03:38 49.00207 2.58646 337 ft 1 kts 260°
2026-05-04 03:38 49.00207 2.58639 337 ft 0 kts 261°
2026-05-04 03:38 49.00206 2.58635 337 ft 0 kts 261°